Precipitable_Water
1.23 1.23 1.26 1.33 1.29 1.05 1.05 1.10 1.13 1.02 1.02 1.03 1.01 1.01 0.99 0.90 0.91 0.94 0.96 0.96 0.96 0.88 0.83 0.73 0.69 0.66 0.63 0.49 0.42 0.46 0.44 0.42 0.38 0.33 0.26 0.24 0.24 0.23 0.21 0.22 0.23 0.20 0.23 0.25 0.25 0.24 0.23
1.15 1.25 1.26 1.32 1.27 1.17 1.04 1.05 1.10 1.06 1.05 1.01 0.97 0.96 0.99 0.97 1.02 0.94 0.98 1.03 0.98 0.88 0.78 0.69 0.71 0.72 0.60 0.45 0.61 0.57 0.50 0.50 0.44 0.34 0.30 0.27 0.26 0.27 0.23 0.23 0.20 0.22 0.22 0.23 0.23 0.25 0.26
1.10 1.14 1.19 1.23 1.40 1.31 1.15 1.03 1.11 1.09 1.05 1.02 0.97 0.96 0.97 0.97 0.97 0.97 1.00 1.00 0.98 0.82 0.75 0.74 0.74 0.70 0.57 0.53 0.60 0.58 0.52 0.45 0.43 0.41 0.36 0.36 0.34 0.30 0.27 0.23 0.27 0.27 0.24 0.26 0.24 0.25 0.26
0.98 1.04 1.16 1.16 1.35 1.29 1.21 1.06 1.05 1.10 1.06 1.04 1.00 0.97 0.98 0.96 0.93 0.95 0.97 0.96 0.87 0.80 0.77 0.76 0.77 0.70 0.53 0.60 0.54 0.49 0.49 0.48 0.46 0.43 0.40 0.39 0.38 0.33 0.30 0.31 0.28 0.26 0.27 0.23 0.27 0.29 0.30
0.99 0.93 1.08 1.10 1.15 1.33 1.26 1.22 1.12 1.10 1.08 1.05 1.03 0.98 0.97 0.98 0.99 0.97 0.94 0.89 0.88 0.84 0.79 0.77 0.64 0.58 0.45 0.53 0.42 0.46 0.46 0.42 0.42 0.39 0.39 0.37 0.33 0.29 0.29 0.24 0.22 0.23 0.19 0.21 0.23 0.28 0.28
0.98 0.97 0.91 1.08 1.13 1.32 1.35 1.28 1.14 1.14 1.10 1.05 1.06 1.00 1.03 1.00 0.99 0.94 0.91 0.90 0.82 0.75 0.74 0.68 0.58 0.42 0.41 0.38 0.39 0.42 0.41 0.41 0.37 0.33 0.29 0.27 0.26 0.23 0.24 0.21 0.16 0.18 0.19 0.20 0.19 0.25 0.28
1.01 0.95 0.96 0.94 1.15 1.28 1.28 1.24 1.26 1.14 1.15 1.17 1.10 1.12 1.09 1.09 1.03 0.93 0.90 0.78 0.62 0.49 0.49 0.38 0.37 0.38 0.38 0.40 0.41 0.39 0.41 0.36 0.33 0.30 0.24 0.27 0.22 0.19 0.21 0.23 0.23 0.22 0.20 0.19 0.22 0.27 0.26
1.04 1.01 0.95 0.96 1.08 1.16 1.22 1.22 1.25 1.16 1.21 1.19 1.00 1.07 1.05 1.01 0.95 0.95 0.82 0.63 0.53 0.52 0.40 0.46 0.43 0.40 0.39 0.39 0.34 0.37 0.40 0.31 0.31 0.28 0.25 0.25 0.21 0.26 0.25 0.25 0.22 0.21 0.19 0.19 0.22 0.24 0.26
1.02 1.04 0.97 0.95 1.10 1.18 1.14 1.16 1.11 1.08 1.14 1.12 1.07 1.06 1.00 0.97 0.92 0.81 0.66 0.55 0.63 0.62 0.38 0.40 0.42 0.39 0.36 0.35 0.31 0.33 0.36 0.35 0.28 0.22 0.20 0.19 0.21 0.27 0.23 0.21 0.19 0.17 0.17 0.18 0.18 0.24 0.30
1.01 1.01 1.01 0.94 1.09 1.28 1.17 1.12 1.08 1.10 1.15 1.17 1.10 1.00 0.96 0.90 0.75 0.70 0.58 0.62 0.64 0.58 0.30 0.33 0.36 0.34 0.32 0.35 0.32 0.40 0.38 0.34 0.25 0.15 0.17 0.18 0.25 0.22 0.20 0.19 0.20 0.13 0.19 0.19 0.17 0.20 0.16
1.02 0.94 0.99 0.92 1.11 1.21 1.23 1.06 1.11 1.21 1.19 1.11 1.01 0.95 0.90 0.88 0.71 0.65 0.63 0.65 0.57 0.47 0.17 0.34 0.32 0.38 0.33 0.30 0.33 0.35 0.40 0.30 0.19 0.19 0.20 0.20 0.21 0.19 0.18 0.20 0.23 0.15 0.21 0.19 0.21 0.23 0.24
0.93 0.95 0.93 0.92 1.01 1.08 1.20 1.25 1.12 1.05 1.10 1.04 1.00 0.96 0.89 0.80 0.77 0.71 0.67 0.56 0.48 0.30 0.20 0.27 0.29 0.28 0.30 0.33 0.34 0.35 0.28 0.26 0.25 0.21 0.22 0.21 0.26 0.25 0.22 0.22 0.23 0.21 0.18 0.23 0.25 0.22 0.16
0.90 0.93 0.97 0.89 0.94 1.13 1.14 1.23 1.16 1.08 1.05 1.06 1.01 0.96 0.84 0.81 0.66 0.71 0.57 0.44 0.31 0.26 0.34 0.27 0.29 0.31 0.31 0.30 0.32 0.29 0.20 0.16 0.13 0.10 0.12 0.18 0.19 0.23 0.24 0.15 0.20 0.19 0.14 0.08 0.11 0.12 0.13
0.90 0.88 0.95 0.90 0.91 1.04 1.10 1.14 1.25 1.27 1.12 1.03 1.03 0.90 0.83 0.81 0.78 0.60 0.49 0.40 0.24 0.35 0.34 0.32 0.31 0.31 0.28 0.31 0.28 0.22 0.14 0.13 0.17 0.16 0.13 0.10 0.10 0.18 0.24 0.19 0.16 0.19 0.18 0.12 0.07 0.10 0.14
0.87 0.86 0.89 0.90 0.87 0.99 0.99 1.15 1.31 1.19 1.16 1.08 0.93 0.87 0.82 0.78 0.67 0.57 0.44 0.31 0.31 0.36 0.37 0.32 0.31 0.29 0.29 0.28 0.20 0.17 0.13 0.12 0.16 0.18 0.11 0.11 0.12 0.24 0.24 0.22 0.23 0.20 0.18 0.26 0.18 0.19 0.14
0.85 0.84 0.85 0.88 0.87 0.92 1.08 1.17 1.25 1.24 1.21 1.10 0.95 0.84 0.73 0.77 0.71 0.53 0.41 0.37 0.39 0.43 0.36 0.34 0.30 0.30 0.28 0.24 0.14 0.12 0.11 0.13 0.15 0.21 0.22 0.16 0.10 0.20 0.22 0.23 0.24 0.23 0.29 0.19 0.21 0.13 0.11
0.81 0.83 0.81 0.88 0.87 0.92 1.14 1.18 1.19 1.16 1.14 1.12 0.90 0.66 0.69 0.79 0.65 0.41 0.34 0.42 0.45 0.42 0.38 0.35 0.33 0.32 0.28 0.16 0.14 0.11 0.11 0.13 0.18 0.20 0.23 0.19 0.15 0.16 0.20 0.15 0.16 0.19 0.18 0.21 0.23 0.21 0.14
0.78 0.81 0.80 0.88 0.89 0.92 0.95 1.09 1.24 1.13 1.11 1.01 0.75 0.50 0.67 0.67 0.37 0.41 0.42 0.46 0.47 0.42 0.43 0.40 0.37 0.30 0.21 0.15 0.12 0.12 0.10 0.12 0.18 0.19 0.14 0.20 0.17 0.14 0.16 0.24 0.26 0.22 0.20 0.19 0.14 0.14 0.17
0.75 0.77 0.83 0.90 0.93 0.92 0.88 1.05 1.21 1.18 1.12 0.86 0.63 0.54 0.64 0.60 0.33 0.40 0.48 0.45 0.43 0.41 0.40 0.40 0.35 0.29 0.20 0.13 0.10 0.12 0.11 0.16 0.19 0.17 0.15 0.19 0.14 0.08 0.10 0.16 0.22 0.18 0.22 0.19 0.19 0.18 0.14
0.78 0.78 0.85 0.92 0.94 0.91 0.84 0.92 1.11 1.10 1.02 0.87 0.57 0.38 0.47 0.52 0.50 0.48 0.43 0.41 0.39 0.43 0.43 0.39 0.32 0.27 0.15 0.13 0.13 0.11 0.09 0.16 0.21 0.20 0.21 0.21 0.16 0.12 0.09 0.13 0.20 0.18 0.19 0.20 0.17 0.13 0.13
0.76 0.78 0.88 0.92 0.93 0.89 0.85 0.87 1.14 1.10 0.90 0.76 0.55 0.46 0.50 0.37 0.47 0.50 0.48 0.42 0.38 0.36 0.39 0.36 0.28 0.23 0.12 0.10 0.11 0.09 0.11 0.15 0.18 0.21 0.21 0.19 0.12 0.14 0.16 0.19 0.21 0.21 0.19 0.19 0.16 0.18 0.12
0.73 0.80 0.92 0.91 0.91 0.86 0.84 0.83 0.86 0.84 0.84 0.66 0.53 0.54 0.54 0.53 0.58 0.50 0.46 0.38 0.38 0.38 0.39 0.35 0.26 0.16 0.13 0.10 0.10 0.09 0.11 0.13 0.13 0.19 0.18 0.20 0.11 0.15 0.13 0.21 0.21 0.19 0.21 0.21 0.20 0.17 0.15
0.75 0.82 0.93 0.90 0.89 0.84 0.80 0.85 0.89 1.03 0.85 0.68 0.62 0.62 0.59 0.54 0.48 0.44 0.43 0.39 0.40 0.41 0.41 0.32 0.21 0.14 0.12 0.13 0.17 0.18 0.19 0.17 0.17 0.15 0.14 0.14 0.13 0.12 0.12 0.22 0.21 0.14 0.18 0.20 0.18 0.18 0.17
0.76 0.88 0.92 0.92 0.88 0.83 0.77 0.84 0.89 0.95 0.95 0.77 0.67 0.56 0.54 0.43 0.44 0.43 0.45 0.44 0.42 0.43 0.34 0.23 0.18 0.14 0.18 0.24 0.23 0.20 0.18 0.16 0.15 0.15 0.17 0.13 0.13 0.13 0.12 0.17 0.08 0.16 0.22 0.21 0.18 0.18 0.20
0.79 0.92 0.90 0.91 0.84 0.79 0.80 0.87 0.99 1.06 0.94 0.79 0.63 0.62 0.51 0.42 0.50 0.45 0.45 0.45 0.44 0.44 0.30 0.20 0.19 0.20 0.25 0.21 0.13 0.10 0.11 0.10 0.12 0.14 0.18 0.20 0.16 0.13 0.10 0.10 0.10 0.13 0.19 0.18 0.16 0.14 0.21
0.86 0.89 0.90 0.88 0.78 0.78 0.83 0.90 0.89 0.86 0.83 0.66 0.67 0.70 0.57 0.50 0.46 0.51 0.47 0.45 0.43 0.40 0.25 0.22 0.24 0.27 0.24 0.17 0.12 0.08 0.07 0.13 0.12 0.15 0.22 0.22 0.21 0.17 0.14 0.10 0.06 0.13 0.17 0.22 0.25 0.12 0.21
0.97 0.86 0.93 0.81 0.75 0.80 0.88 0.95 0.96 0.83 0.76 0.78 0.76 0.70 0.62 0.51 0.55 0.58 0.47 0.44 0.48 0.36 0.19 0.21 0.22 0.21 0.24 0.14 0.11 0.11 0.11 0.17 0.11 0.12 0.13 0.15 0.16 0.14 0.14 0.12 0.11 0.18 0.19 0.25 0.13 0.11 0.21
0.86 0.87 0.89 0.87 0.80 0.78 0.75 0.80 0.84 0.87 0.90 0.82 0.71 0.77 0.67 0.53 0.55 0.59 0.57 0.52 0.48 0.30 0.14 0.21 0.17 0.19 0.17 0.10 0.11 0.14 0.13 0.15 0.13 0.14 0.13 0.12 0.12 0.12 0.13 0.10 0.09 0.21 0.20 0.15 0.18 0.22 0.24
0.83 0.86 0.88 0.86 0.81 0.76 0.78 0.83 0.93 0.90 0.84 0.80 0.70 0.76 0.70 0.56 0.51 0.55 0.58 0.60 0.49 0.31 0.19 0.23 0.15 0.18 0.16 0.12 0.15 0.16 0.15 0.16 0.14 0.11 0.17 0.11 0.13 0.12 0.13 0.12 0.18 0.22 0.21 0.24 0.24 0.24 0.25
Wind_Speed
50 50 48 46 45 44 42 40 38 37 35 32 31 28 26 26 24 22 20 19 19 21 20 20 21 22 21 21 22 24 24 26 27 26 25 26 25 25 24 26 27 26 26 28 31 30 25
52 50 50 47 46 46 44 42 40 38 36 34 31 29 26 24 25 23 20 20 19 18 19 18 19 20 20 21 23 24 25 26 26 27 27 27 27 27 28 26 26 28 29 29 26 23 23
55 52 51 48 47 44 44 44 41 39 37 35 32 29 26 24 23 21 19 19 19 18 19 19 19 19 20 21 22 22 23 24 25 28 27 28 27 26 28 29 26 29 28 26 25 28 26
57 54 52 50 47 45 44 43 42 41 38 36 33 30 26 24 23 22 20 18 18 18 18 18 19 20 20 20 20 21 22 25 28 28 28 29 27 27 27 28 28 27 25 26 28 27 27
56 56 55 52 50 47 44 42 43 41 39 37 34 30 27 25 22 20 19 17 17 17 17 18 18 17 18 17 19 21 23 25 27 27 24 24 24 23 24 24 24 23 23 25 27 26 25
58 54 55 54 51 49 44 44 42 41 40 37 35 32 28 25 22 20 18 17 16 16 16 15 15 14 15 19 19 20 22 23 23 23 22 21 21 21 22 21 21 23 22 24 24 22 19
58 57 53 54 52 50 46 43 42 40 39 37 36 33 30 26 22 19 18 16 15 14 13 12 14 13 15 17 15 19 22 21 19 17 19 20 17 19 22 20 20 20 21 22 23 20 20
59 57 55 54 52 52 48 46 43 41 38 37 34 31 29 26 23 20 18 16 14 13 12 13 13 13 13 16 16 19 19 15 16 17 19 16 15 20 15 17 18 19 20 22 23 24 19
59 57 57 56 52 52 52 49 43 42 39 37 34 31 29 25 22 19 17 15 14 13 12 13 13 13 14 12 13 15 15 15 15 16 16 13 17 16 15 17 19 20 18 21 23 21 17
60 58 56 57 53 48 52 50 46 41 40 38 35 32 29 25 21 19 17 15 13 12 11 13 12 11 11 10 11 13 15 15 14 13 13 12 15 14 15 15 18 18 20 24 24 20 18
59 60 56 57 57 52 50 49 48 44 40 38 35 33 30 26 20 19 17 15 13 11 10 10 9 9 10 11 14 16 16 13 11 12 10 11 13 14 15 17 19 20 26 23 19 14 14
61 58 58 58 57 53 51 48 47 45 41 38 36 33 30 24 20 19 17 14 12 9 13 9 10 10 11 11 10 12 12 11 9 9 9 10 13 13 16 18 17 23 19 15 11 11 12
62 59 59 58 57 54 52 51 48 45 42 40 36 33 29 25 21 20 17 14 11 11 11 10 10 9 9 11 11 11 11 10 9 9 11 12 13 13 17 17 16 22 18 14 13 13 12
63 61 59 58 58 56 53 51 49 46 44 41 37 32 27 23 22 20 17 13 12 12 12 10 9 9 10 10 10 9 8 8 9 8 8 9 13 15 18 16 18 18 14 9 9 10 11
63 62 60 59 57 56 54 52 50 49 46 42 37 30 26 23 22 20 17 13 15 14 12 11 10 10 9 8 7 7 7 6 7 8 6 7 11 13 14 17 18 17 13 11 8 9 8
63 62 60 59 58 57 55 54 52 52 45 45 34 29 24 22 22 20 16 16 14 13 11 11 10 9 9 8 6 5 5 6 6 7 7 7 9 11 13 17 17 15 13 10 10 8 7
63 62 61 60 59 58 57 55 53 52 50 44 33 25 25 22 21 19 17 17 15 14 12 11 10 8 8 6 5 4 4 3 4 6 7 6 9 11 12 14 12 15 15 12 9 7 4
62 61 61 60 60 59 59 58 55 54 51 43 30 24 26 24 18 18 16 16 15 13 11 10 8 7 7 6 4 4 3 2 2 3 7 8 8 9 9 12 12 12 11 11 9 9 6
62 60 61 62 61 59 60 59 55 56 52 37 29 24 25 24 18 18 16 16 14 12 11 9 8 8 7 6 3 3 2 1 1 2 4 6 9 10 13 12 13 13 12 11 9 9 7
62 60 61 62 61 60 60 60 59 58 49 38 28 22 23 23 20 19 17 14 13 12 10 9 8 7 7 6 4 4 3 2 0 3 5 7 8 8 7 8 10 12 12 12 10 9 10
61 61 61 62 62 61 60 62 61 56 47 36 28 24 24 21 23 21 18 15 14 12 10 10 8 9 9 6 5 6 5 3 0 3 5 6 7 8 9 10 9 10 10 12 11 10 9
62 60 61 62 62 60 60 62 61 55 48 35 28 24 21 18 23 20 19 19 16 14 12 13 11 11 9 8 7 8 6 3 0 2 4 6 7 9 11 9 10 11 10 11 11 11 13
61 60 62 61 60 60 60 60 59 58 46 35 28 25 20 20 19 20 20 18 18 15 11 14 13 11 9 10 8 8 5 3 2 1 2 5 7 10 10 11 13 13 9 8 11 11 11
60 59 61 61 60 59 58 59 59 54 47 35 28 25 21 18 20 21 20 17 19 16 14 14 14 12 12 11 9 5 3 2 1 1 2 4 7 8 9 10 10 10 11 10 10 13 13
60 60 61 59 59 58 57 58 58 52 44 36 30 25 21 18 20 20 18 17 17 16 14 15 15 14 15 10 6 4 2 1 3 3 2 3 5 8 8 9 12 11 9 10 10 14 13
59 60 60 58 58 57 57 57 56 49 41 35 30 25 20 18 22 20 19 22 18 17 15 15 15 16 13 10 7 5 4 3 2 2 3 3 5 5 8 10 10 10 11 11 12 15 14
59 60 58 57 56 57 56 55 53 48 41 35 28 25 22 19 17 19 20 22 18 18 17 17 17 15 13 10 7 5 4 4 3 3 3 3 5 4 7 8 12 11 10 10 12 14 14
59 59 57 55 55 54 53 53 51 46 42 35 27 24 22 19 18 20 21 20 21 21 20 20 15 14 13 10 8 6 4 6 4 4 4 3 3 5 7 8 10 8 9 9 13 15 16
57 57 56 54 53 52 51 51 51 44 40 33 26 24 21 19 18 19 19 23 24 24 22 20 15 17 13 10 8 6 5 4 5 5 5 5 5 6 5 7 9 10 10 13 13 15 16
Wind_Direction
224 223 222 222 221 221 221 221 221 222 222 222 222 226 229 231 234 238 244 251 259 263 270 274 276 280 278 279 278 282 286 290 290 292 291 290 288 289 288 287 289 283 288 290 292 290 290
223 222 221 221 221 221 221 220 220 220 221 221 222 224 229 232 233 236 243 252 261 264 272 275 281 283 279 281 281 283 288 290 290 291 291 289 285 286 284 286 285 286 289 289 290 296 291
222 221 220 219 219 219 220 218 219 219 219 220 220 223 227 230 229 232 241 248 258 265 272 275 281 283 282 283 285 288 289 291 293 291 288 287 285 285 286 287 285 286 287 282 293 293 286
221 220 218 218 218 218 217 217 217 217 218 219 220 222 225 226 230 234 243 250 260 266 272 275 281 281 280 283 287 290 292 292 295 291 288 285 284 283 282 284 289 289 288 288 289 294 290
219 218 218 217 216 216 215 214 213 215 216 217 218 220 222 224 227 235 242 252 260 269 274 276 279 281 282 282 290 295 296 295 297 295 293 286 284 285 289 289 289 294 288 290 292 297 291
217 216 216 214 212 212 213 212 214 214 213 215 216 218 220 223 228 235 241 250 261 269 270 274 280 281 283 286 290 298 299 298 297 297 290 295 291 290 294 295 288 290 289 288 290 295 299
215 214 213 211 211 211 211 209 208 210 212 212 214 217 217 222 225 231 240 253 261 266 270 276 281 282 285 292 296 302 304 296 299 302 298 297 296 295 295 294 292 290 290 288 290 290 295
213 212 211 210 211 208 209 209 209 209 209 208 211 212 215 218 223 231 241 248 253 257 269 276 280 285 290 291 293 308 311 302 304 303 305 300 301 302 295 302 303 299 292 293 295 296 288
210 210 209 208 207 207 208 207 206 207 208 208 208 208 211 214 219 230 234 240 249 260 272 278 278 283 291 300 300 308 319 307 310 309 308 297 299 301 305 310 308 300 294 295 290 294 298
209 207 207 206 204 205 204 206 206 206 204 204 205 207 208 210 219 223 232 236 247 259 272 277 277 283 286 289 302 311 318 311 312 310 308 307 307 312 314 311 314 306 303 298 292 287 282
207 205 205 204 203 203 203 203 203 202 202 203 203 203 204 209 217 221 230 231 242 260 278 264 271 274 290 294 292 306 314 315 312 317 315 310 324 323 320 311 311 303 311 300 292 287 290
205 204 203 202 202 202 200 199 199 200 200 200 201 201 203 211 216 221 218 226 242 263 261 257 269 273 291 304 306 306 320 320 314 322 326 319 312 328 320 315 315 317 321 319 316 302 302
203 202 201 200 199 199 199 200 198 197 197 197 197 198 204 209 216 212 215 227 250 243 253 255 264 272 286 297 304 313 325 335 319 317 320 319 332 321 339 327 321 334 332 316 314 315 293
201 200 199 198 198 198 198 198 199 196 192 193 192 196 203 209 207 210 217 235 240 246 245 254 265 277 283 288 300 309 312 331 338 329 328 328 326 337 337 342 330 332 334 319 301 310 305
199 198 198 197 196 196 195 193 193 194 191 190 191 195 202 208 208 212 220 235 238 240 244 243 259 272 281 288 287 300 315 314 322 342 340 338 333 340 346 344 347 338 344 327 327 321 324
197 196 196 195 194 194 193 192 191 189 189 185 190 195 204 208 207 213 224 235 236 242 240 249 257 266 269 267 283 292 293 306 326 343 350 342 355 353 349 1 4 5 351 346 340 340 325
194 194 194 193 192 192 190 189 189 189 187 185 188 197 201 203 206 217 229 230 235 242 245 249 251 261 250 248 253 266 259 315 326 357 11 7 7 351 2 4 2 4 8 7 6 353 317
192 192 192 191 190 190 189 187 184 186 184 186 196 203 201 201 211 221 221 227 234 238 238 245 248 239 226 227 244 246 243 274 335 7 7 6 13 6 349 356 5 11 7 10 12 345 350
190 189 189 189 188 188 187 187 187 182 183 189 192 196 201 203 215 219 226 226 232 227 229 235 233 225 224 211 217 204 198 235 348 5 3 4 6 6 1 3 7 10 359 2 355 350 331
187 187 187 187 186 186 185 185 186 185 185 187 192 200 205 210 218 211 211 216 218 220 225 220 215 212 207 209 211 195 181 208 108 23 25 13 12 17 7 349 358 354 354 355 353 345 322
185 185 185 185 185 185 185 185 184 184 189 192 198 206 204 212 214 212 212 214 212 216 220 213 218 217 201 202 197 189 187 173 335 19 6 11 10 6 351 343 355 350 346 348 348 332 336
183 183 183 183 183 184 185 185 188 190 189 196 200 197 203 205 197 206 212 215 209 215 215 218 209 201 198 193 195 187 174 196 266 6 11 3 4 8 1 17 6 350 342 339 338 337 332
181 182 181 181 182 183 184 186 187 186 191 193 196 197 197 200 202 204 212 212 215 208 226 207 194 191 191 189 182 170 188 182 155 43 0 12 13 9 6 9 360 351 338 339 342 340 336
179 180 179 180 181 182 184 184 185 188 190 194 194 196 200 205 204 207 207 215 207 210 204 197 190 184 188 166 161 161 168 176 224 294 349 15 10 9 4 1 1 348 354 349 338 336 330
178 177 178 179 180 181 182 182 183 187 190 192 193 199 203 205 204 203 209 207 200 202 199 192 189 184 172 173 174 182 234 253 267 254 284 336 1 1 8 355 337 344 346 343 343 334 333
176 176 177 178 179 179 180 183 184 184 186 190 194 197 200 200 211 203 202 194 192 196 192 190 183 178 181 184 184 194 204 218 254 300 319 334 342 350 356 356 347 343 346 346 353 342 348
172 173 175 176 177 178 179 179 183 186 187 188 192 197 200 202 204 200 202 195 199 191 188 183 183 185 188 191 194 202 221 218 240 254 286 322 335 321 339 338 332 332 343 353 360 341 345
171 173 174 175 176 179 180 183 184 185 188 191 195 198 202 204 209 208 206 203 193 190 186 186 181 196 192 195 202 217 222 237 260 269 277 286 308 320 346 346 333 339 347 338 332 338 339
170 172 173 175 176 177 179 180 181 183 185 189 195 197 199 204 209 208 205 200 197 193 185 188 192 190 196 197 212 215 234 247 246 280 286 297 279 305 308 318 319 326 322 329 332 332 335